Regional Weather Roundup
Issued by NWS

Home | Current Version | Previous Version | Text Only | Print | Product List | Glossary Off
Versions: 1 2 3 4 5 6 7 8 9 10 11 12 13 14 15 16 17 18 19 20 21 22 23 24 25 26 27 28 29 30 31 32 33 34 35 36 37 38 39 40 41 42 43 44 45 46 47 48 49 50

000
ASUS45 KBOU 240307
RWRCO

WEATHER ROUNDUP FOR COLORADO
NATIONAL WEATHER SERVICE DENVER/BOULDER CO
800 PM MST MON JAN 23 2017

NOTE: "FAIR" INDICATES FEW OR NO CLOUDS BELOW 12000 FEET WITH NO
SIGNIFICANT WEATHER AND/OR OBSTRUCTIONS TO VISIBILITY.

COZ001>005-013-030-031-240400-
...NORTHWEST COLORADO...

CITY           SKY/WX    TMP DP  RH WIND       PRES   REMARKS
CRAIG          FAIR      31  17  56 S16       29.53F WCI  20
HAYDEN         FAIR      28  19  69 CALM      29.54F
MEEKER         CLOUDY    31  23  72 SW9       29.55R WCI  23
MOUNT WERNER   NOT AVBL
STEAMBOAT SPGS MOCLDY    27  17  67 E7        29.54F WCI  19
WALDEN           N/A     23  18  80 E5        29.55F WCI  17
$$

COZ006>008-011-240400-
...WEST CENTRAL VALLEYS...

CITY           SKY/WX    TMP DP  RH WIND       PRES   REMARKS
GRAND JUNCTION FAIR      33  32  96 N6        29.58S WCI  28
MONTROSE       CLOUDY    33  26  75 SE8       29.65F WCI  26
EAGLE          FLURRIES  28  25  86 CALM      29.62S
RIFLE          CLOUDY    32  28  85 E6        29.58F WCI  26
DELTA          MOCLDY    36  28  74 E5        29.62F
NUCLA          MOCLDY    32  23  69 S8        29.65F WCI  25
$$

COZ017>023-064>068-240400-
...SOUTHWEST COLORADO...

CITY           SKY/WX    TMP DP  RH WIND       PRES   REMARKS
DURANGO        CLOUDY    28  26  92 S5        29.62F WCI  23
CORTEZ         LGT SNOW  30  29  96 E6        29.67F VSB 1   WCI  24
PAGOSA SPRINGS LGT SNOW  31  30  96 SW15      29.61F WCI  20
TELLURIDE      NOT AVBL
WOLF CREEK PAS CLOUDY    16  16 100 SW24G41   29.58R WCI  -3
$$

COZ009-010-012-014-032>034-037-058>063-240400-
...CENTRAL COLORADO...

CITY           SKY/WX    TMP DP  RH WIND       PRES   REMARKS
ASPEN          LGT SNOW  25  24  96 N3        29.58R VSB 1
BUENA VISTA    LGT SNOW  28  27  94 CALM      29.57S
COPPER MTN     LGT SNOW  19  12  73 MISG      29.55S VSB 1
BERTHOUD PASS  CLOUDY    10   1  67 MISG      29.54S
COTTONWOOD PAS LGT SNOW  27  23  86 NW6       29.56F WCI  20
GUNNISON       CLOUDY    27  18  69 SW13      29.61S WCI  16
KREMMLING      CLOUDY    34  23  64 SW14      29.59R WCI  24
LEADVILLE      FLURRIES  20  16  84 NE6       29.55S WCI  12
MONARCH PASS   CLOUDY    14  12  92 W10G31    29.65F WCI   1
SALIDA         CLOUDY    33  28  85 SW8       29.64F WCI  25
SUNLIGHT         N/A     14  10  85 SW15G26   29.59R WCI  -1
WILKERSON PASS LGT SNOW N/A N/A N/A SW7       29.59S VSB 3/4
$$

COZ069>075-240400-
...SAN LUIS VALLEY/SANGRE DE CRISTO MOUNTAINS...

CITY           SKY/WX    TMP DP  RH WIND       PRES   REMARKS
ALAMOSA        MOCLDY    32  27  81 SW24G31   29.58F WCI  19
LA VETA PASS   CLOUDY    27  23  86 NE29G46   29.57F FOG     WCI  11
SAGUACHE       CLOUDY    28  27  93 E6        29.58F WCI  22
$$

COZ035-036-038>040-240400-
...NORTHERN COLORADO FRONT RANGE...

CITY           SKY/WX    TMP DP  RH WIND       PRES   REMARKS
DENVER INTL AP FAIR      31  25  78 SE5       29.47F WCI  26
DMNS CITY PARK   N/A     35  28  74 W3G9      29.49S
AURORA         MOCLDY    36  24  64 S8        29.49F
FRONT RANGE AP PTCLDY    39  27  60 S10       29.49F
ERIE MUNI ARPT FAIR      36  27  69 W6        29.50R
BOULDER MUN AP FAIR      37  28  70 N5        29.49S
CENTENNIAL     MOCLDY    37  24  59 CALM      29.49S
BROOMFIELD     NOT AVBL
FORT COLLINS   CLOUDY    35  27  72 N7        29.52S WCI  29
LONGMONT       MOCLDY    38  29  69 NW6       29.52R
$$

COZ041-046-047-076>085-087-088-240400-
...PIKES PEAK/PALMER DIVIDE AND SOUTHERN FOOTHILLS...

CITY           SKY/WX    TMP DP  RH WIND       PRES   REMARKS
COLO. SPRINGS  FLURRIES  37  21  52 E5        29.53S
A. F. ACADEMY  MOCLDY    31  21  65 N3        29.51F
SCHRIEVER AFB  MOCLDY    35  23  61 SW10      29.53S WCI  28
ELLICOTT       FAIR     N/A N/A N/A S13       29.51F
FALCON         MOCLDY    34  20  56 SW7       29.54R WCI  28
FORT CARSON    FAIR      40  22  48 SW6       29.50S
LIMON          FAIR      36  24  62 NW5       29.49F
MONUMENT HILL  FAIR      32  23  69 SW10      29.53S WCI  24
TRINIDAD       FAIR      37  30  75 W12       29.56F
$$

COZ042>045-048>051-090-091-240400-
...NORTHEAST COLORADO...

CITY           SKY/WX    TMP DP  RH WIND       PRES   REMARKS
GREELEY ARPT   FAIR      36  26  67 CALM      29.52S
AKRON          MOCLDY    32  24  72 E10       29.52F WCI  24
BURLINGTON     FAIR      34  27  75 N5        29.52S WCI  30
WRAY           NOT AVBL
STERLING       CLOUDY    37  28  70 NE5       29.54F
HOLYOKE        FAIR      37  32  81 N8        29.56F
FORT MORGAN    FAIR      37  25  63 E13       29.53S
$$

COZ086-089-092>099-240400-
...SOUTHEAST COLORADO...

CITY           SKY/WX    TMP DP  RH WIND       PRES   REMARKS
PUEBLO         MOCLDY    40  28  62 SW6       29.51S
LA JUNTA       FAIR      43  30  60 SW14      29.52F
LAMAR          FAIR      36  27  69 NW8       29.51F
SPRINGFIELD      N/A     33  22  63 SW7       29.55F WCI  27
$$



USA.gov is the U.S. government's official web portal to all federal, state and local government web resources and services.